Simultaneous Nadir Overpasses (SNOs) Predictions

Prediction of SNOs between NOAA-19 and METOP-C Satellite Orbit:

Table of predicted SNOs for the next 14.0 days since TLE Epoch: 5/28/2022
Index Date (NOAA-19) Time (NOAA-19) Lat,Lon (NOAA-19) SZA (NOAA-19 ) Date (METOP-C) Time (METOP-C) Lat,Lon (METOP-C) SZA (METOP-C ) Distance(km) Time Diff (sec)
1 05/29/2022 04:57:25 -80.84, -41.43 119.19 05/29/2022 04:58:37 -80.85, -41.28 119.14 3.05 72
2 05/29/2022 05:48:27 80.83, 125.99 60.82 05/29/2022 05:49:18 80.84, 125.92 60.84 1.53 51
3 05/29/2022 06:39:25 -80.84, -66.96 119.20 05/29/2022 06:39:59 -80.84, -66.79 119.17 3.03 34
4 05/29/2022 07:30:27 80.83, 100.46 60.81 05/29/2022 07:30:40 80.83, 100.40 60.81 1.17 13
5 05/29/2022 08:21:24 -80.83, -92.12 119.19 05/29/2022 08:21:21 -80.83, -92.30 119.21 3.23 3
6 05/29/2022 09:12:27 80.83, 74.94 60.80 05/29/2022 09:12:02 80.82, 74.89 60.77 1.74 25
7 05/29/2022 10:03:24 -80.83,-117.65 119.20 05/29/2022 10:02:43 -80.82,-117.81 119.24 3.23 41
8 05/29/2022 10:54:26 80.83, 49.79 60.81 05/29/2022 10:53:23 80.83, 49.72 60.79 1.22 63
9 06/09/2022 10:24:11 80.85, 56.74 59.44 06/09/2022 10:25:11 80.84, 56.90 59.47 2.98 60
10 06/09/2022 11:15:06 -80.84,-135.82 120.55 06/09/2022 11:15:53 -80.83,-135.86 120.55 1.27 47
11 06/09/2022 12:06:10 80.84, 31.57 59.46 06/09/2022 12:06:32 80.85, 31.73 59.49 3.00 22
12 06/09/2022 12:57:05 -80.84,-160.98 120.53 06/09/2022 12:57:14 -80.84,-161.03 120.53 1.14 9
13 06/09/2022 13:48:10 80.84, 6.04 59.45 06/09/2022 13:47:54 80.84, 6.21 59.46 3.05 16
14 06/09/2022 14:39:05 -80.84, 173.48 120.54 06/09/2022 14:38:36 -80.83, 173.45 120.56 0.65 29
15 06/09/2022 15:30:09 80.84, -19.12 59.47 06/09/2022 15:29:16 80.83, -19.31 59.43 3.34 53



Historial Predications of SNOs between NOAA-19 and METOP-C
